sat.trackr.live / text

‹ back to catalog

2024-173E

NORAD 61231 · 2024-173E

PAYLOAD ACTIVE UNKNOWN

§ Identity

Operator
Country
PRC
Launch date
2024-09-24
Launch site
YSLA
Launch vehicle
Mass (kg)
RCS (m²)

External: N2YO · Heavens-Above · Gunter

§ Orbital elements

Epoch: 2026-09-22T23:23:51.397152Z

Period
94.79 min
Inclination
97.4114°
Eccentricity
0.0001611
Mean motion
15.19175440 rev/d
Perigee alt
507.2 km
Apogee alt
509.4 km
Semi-major
6,886.5 km
B*
4.6525e-5
RAAN
336.3056°
Arg perigee
91.6534°
Mean anomaly
268.4886°
Rev number
11,060

§ Raw data

2024-173E1 61231U 24173E   26265.97490043  .00000911  00000+0  46525-4 0  99932 61231  97.4114 336.3056 0001611  91.6534 268.4886 15.19175440110601

JSON: /api/v1/satellites/61231 · /tle

For live sub-satellite position, see the globe view (requires WebGL).

§ Visibility from observer

Set your observer location to see the next 7 days of passes ≥ 10°. The values pass through the URL so the page stays shareable.

No JS? Fill the form by hand. The geolocation button needs JavaScript.

§ Radio — SatNOGS DB

ModeDescriptionDownlinkUplink
FSK AX.100 Mode 5 Mode U - FSK19k2 401.750 MHz

1 transmitter · refreshed weekly from db.satnogs.org